sat.trackr.live / text

‹ back to catalog

ONEWEB-0289

NORAD 49079 · 2021-075E

PAYLOAD ACTIVE UNKNOWN

§ Identity

Operator
Country
UK
Launch date
2021-08-21
Launch site
TYMSC
Launch vehicle
Mass (kg)
RCS (m²)

Purposes: comms

External: N2YO · Heavens-Above · Gunter

§ Orbital elements

Epoch: 2026-09-09T19:09:38.401632Z

Period
109.29 min
Inclination
87.9195°
Eccentricity
0.0001585
Mean motion
13.17650633 rev/d
Perigee alt
1,192.5 km
Apogee alt
1,194.9 km
Semi-major
7,571.8 km
B*
9.5249e-5
RAAN
349.0770°
Arg perigee
92.8947°
Mean anomaly
267.2366°
Rev number
24,534

§ Raw data

ONEWEB-02891 49079U 21075E   26252.79836113  .00000050  00000+0  95249-4 0  99962 49079  87.9195 349.0770 0001585  92.8947 267.2366 13.17650633245343

JSON: /api/v1/satellites/49079 · /tle

For live sub-satellite position, see the globe view (requires WebGL).

§ Visibility from observer

Set your observer location to see the next 7 days of passes ≥ 10°. The values pass through the URL so the page stays shareable.

No JS? Fill the form by hand. The geolocation button needs JavaScript.